User: anonymous   Login
Location: Chevoux
(46.3801°N, 4.9476°E)
Time: 00:04:37
(UTC+00:00)
Language:

CSL-04 DEB - Orbit

View from above orbital plane
View from above orbital plane
View from above satellite
View from above satellite

Ground track
Ground track

The orbit data is extracted from the following two-line orbital elements,

1 26121U 99057H   21103.80144358  .00000678  00000-0  68873-4 0  9999
2 26121  98.7587 294.5001 0058179 317.6361  42.0370 14.93753543142430
Epoch (UTC): 13 April 2021 19:14:04
Eccentricity: 0.0058179
inclination: 98.7587°
perigee height: 546 km
apogee height: 627 km
right ascension of ascending node: 294.5001°
argument of perigee: 317.6361°
revolutions per day: 14.93753543
mean anomaly at epoch: 42.0370°
orbit number at epoch: 14243

The dashed part of the orbit path shows where the satellite is in the earth's shadow,  

DLR